(6) Hebe

Orbital Elements

The following orbital elements are taken from MPC 24219:
    (6) Hebe
Epoch 2001 Apr. 1.0 TT = JDT 2452000.5   (M-c)          Bowell
M 165.02402              (2000.0)            P               Q
n   0.26101473     Peri.  238.94026     +0.93351781     -0.31689578
a   2.4248937      Node   138.85907     +0.34776279     +0.91410017
e   0.2017921      Incl.   14.76701     -0.08720978     +0.25297815
P   3.78           H    5.71          G   0.24
From 3581 observations at 59 oppositions, 1869-1994, mean residual 0".53.
An explanation of the orbital elements is available.

These orbital elements are also available in forms suitable for loading into a number of popular planetarium-type software programs.


Ephemeris

The following ephemeris is at intervals of five days. A daily ephemeris covering the same time interval is also available.

Date    TT    R. A. (2000) Decl.     Delta      r     Elong.  Phase     V
 
2001 01 11    13 00.08   +03 38.6    2.535    2.848    98.3    20.0    10.9
2001 01 16    13 02.98   +03 52.1    2.470    2.853   102.7    19.7    10.8
2001 01 21    13 05.39   +04 09.9    2.406    2.858   107.3    19.2    10.8
2001 01 26    13 07.29   +04 32.1    2.344    2.862   111.9    18.6    10.7
2001 01 31    13 08.64   +04 58.7    2.285    2.866   116.7    17.9    10.6
2001 02 05    13 09.42   +05 29.6    2.228    2.870   121.6    17.0    10.5
2001 02 10    13 09.61   +06 04.7    2.174    2.874   126.6    16.0    10.5
2001 02 15    13 09.20   +06 43.7    2.124    2.878   131.7    14.9    10.4
2001 02 20    13 08.17   +07 26.2    2.079    2.881   136.8    13.6    10.3
2001 02 25    13 06.53   +08 11.7    2.039    2.884   142.0    12.2    10.2
2001 03 02    13 04.30   +08 59.4    2.005    2.887   147.1    10.7    10.1
2001 03 07    13 01.54   +09 48.5    1.976    2.890   152.1     9.3    10.0
2001 03 12    12 58.30   +10 38.0    1.954    2.893   156.6     7.8    10.0
2001 03 17    12 54.64   +11 26.8    1.939    2.896   160.4     6.6     9.9
2001 03 22    12 50.67   +12 14.0    1.931    2.898   162.9     5.8     9.9
2001 03 27    12 46.48   +12 58.5    1.930    2.901   163.5     5.6     9.9
2001 04 01    12 42.19   +13 39.1    1.936    2.903   161.9     6.1     9.9
2001 04 06    12 37.92   +14 15.2    1.950    2.905   158.7     7.2     9.9
2001 04 11    12 33.79   +14 46.0    1.970    2.906   154.5     8.5    10.0
2001 04 16    12 29.89   +15 11.2    1.996    2.908   149.8    10.0    10.1
2001 04 21    12 26.32   +15 30.5    2.029    2.909   144.9    11.4    10.2
2001 04 26    12 23.17   +15 43.8    2.067    2.911   140.0    12.9    10.3
2001 05 01    12 20.49   +15 51.1    2.111    2.912   135.0    14.2    10.4
2001 05 06    12 18.34   +15 52.9    2.158    2.912   130.1    15.4    10.5
2001 05 11    12 16.73   +15 49.3    2.210    2.913   125.3    16.4    10.5
2001 05 16    12 15.67   +15 40.8    2.265    2.914   120.6    17.4    10.6
2001 05 21    12 15.17   +15 27.8    2.324    2.914   116.1    18.2    10.7
2001 05 26    12 15.22   +15 10.6    2.384    2.914   111.6    18.9    10.8
2001 05 31    12 15.81   +14 49.7    2.447    2.914   107.3    19.4    10.8
2001 06 05    12 16.91   +14 25.5    2.511    2.914   103.1    19.8    10.9
2001 06 10    12 18.49   +13 58.2    2.576    2.914    99.1    20.1    11.0
2001 06 15    12 20.52   +13 28.4    2.641    2.913    95.1    20.3    11.0
2001 06 20    12 22.98   +12 56.2    2.707    2.912    91.3    20.4    11.1

Back to Bright Minor Planets

Astronomical Headlines Index

MPC